Hulett, WY

3:45 AM MST on December 15, 2019 (GMT -0700)
Hulett

Weather History for KW43 - June, 2019

Change the Weather History Date:

Tuesday, June 4, 2019

  Actual Average (WUND) Record (WUND)
Temperature  
Mean Temperature 66 °F -  
Max Temperature 77 °F - - (-1)
Min Temperature 55 °F - - (-1)
Cooling Degree Days 1    
Growing Degree Days 16 (Base 50)    
Moisture  
Dew Point 45 °F    
Average Humidity 47    
Maximum Humidity 72    
Minimum Humidity 28    
Precipitation  
Precipitation 0.00 in - - ()
Sea Level Pressure  
Sea Level Pressure 29.97 in    
Wind  
Wind Speed 9 mph (West)    
Max Wind Speed 17 mph    
Max Gust Speed 28 mph    
Visibility 10 miles    
Events Thunderstorm    
Averages and records for this station are not official NWS values.
T = Trace of Precipitation, MM = Missing Value Source: NWS Daily Summary

Daily Weather History Graph

Daily Weather History Graph

Search for Another Location

Airport or City:

Astronomy

Jun. 04, 2019 Rise Set
Actual Time 5:14 AM MDT 8:38 PM MDT
Civil Twilight 4:38 AM MDT 9:15 PM MDT
Nautical Twilight 3:51 AM MDT 10:02 PM MDT
Astronomical Twilight 2:51 AM MDT 11:03 PM MDT
Moon 6:26 AM MDT (6/4) 10:09 PM MDT (6/4)
Length of Visible Light 16h 36m
Length of Day
15h 24m
New Moon, 2% of the Moon is Illuminated
Jun 4
New Moon
Jun 10
First Quarter
Jun 17
Full
Jun 25
Last Quarter
Jul 2
New

Hourly Weather History & Observations

Time (MDT) Temp. Dew Point Humidity Pressure Visibility Wind Dir Wind Speed Gust Speed Precip Events Conditions
12:15 AM 66.2 °F 44.6 °F 46% 29.88 in 10.0 mi West 9.2 mph 23.0 mph N/A   Clear
12:35 AM 62.6 °F 48.2 °F 59% 29.90 in 10.0 mi SW 11.5 mph - N/A Thunderstorm Clear
12:55 AM 60.8 °F 50.0 °F 68% 29.90 in 10.0 mi SSW 9.2 mph - N/A   Clear
1:15 AM 60.8 °F 50.0 °F 68% 29.90 in 10.0 mi SSW 11.5 mph - N/A Thunderstorm Clear
1:35 AM 60.8 °F 50.0 °F 68% 29.91 in 10.0 mi SW 5.8 mph - N/A   Clear
1:55 AM 64.4 °F 44.6 °F 49% 29.91 in 10.0 mi WSW 17.3 mph 27.6 mph N/A   Clear
2:15 AM 64.4 °F 44.6 °F 49% 29.91 in 10.0 mi SSW 11.5 mph 17.3 mph N/A   Clear
2:35 AM 62.6 °F 46.4 °F 55% 29.90 in 10.0 mi South 8.1 mph - N/A   Clear
2:55 AM 62.6 °F 44.6 °F 52% 29.90 in 10.0 mi SW 6.9 mph - N/A   Clear
3:15 AM 64.4 °F 42.8 °F 45% 29.89 in 10.0 mi SSW 5.8 mph - N/A   Clear
3:35 AM 62.6 °F 44.6 °F 52% 29.89 in 10.0 mi SSW 8.1 mph - N/A   Clear
3:55 AM 62.6 °F 44.6 °F 52% 29.88 in 10.0 mi South 9.2 mph - N/A   Clear
4:15 AM 60.8 °F 46.4 °F 59% 29.88 in 10.0 mi South 9.2 mph - N/A   Mostly Cloudy
4:35 AM 60.8 °F 46.4 °F 59% 29.89 in 10.0 mi South 9.2 mph - N/A   Overcast
4:55 AM 62.6 °F 46.4 °F 55% 29.90 in 10.0 mi South 8.1 mph - N/A   Scattered Clouds
5:15 AM 60.8 °F 46.4 °F 59% 29.90 in 10.0 mi SW 6.9 mph - N/A   Scattered Clouds
5:35 AM 62.6 °F 44.6 °F 52% 29.90 in 10.0 mi SW 5.8 mph - N/A   Clear
5:55 AM 60.8 °F 44.6 °F 55% 29.91 in 10.0 mi SW 8.1 mph - N/A   Clear
6:15 AM 62.6 °F 46.4 °F 55% 29.93 in 10.0 mi SW 8.1 mph - N/A   Scattered Clouds
6:35 AM 62.6 °F 46.4 °F 55% 29.95 in 10.0 mi West 6.9 mph - N/A   Mostly Cloudy
6:55 AM 62.6 °F 46.4 °F 55% 29.96 in 10.0 mi WSW 6.9 mph - N/A   Mostly Cloudy
7:15 AM 64.4 °F 46.4 °F 52% 29.96 in 10.0 mi WSW 6.9 mph - N/A   Overcast
7:35 AM 66.2 °F 46.4 °F 49% 29.95 in 10.0 mi SW 6.9 mph - N/A Thunderstorm Scattered Clouds
7:55 AM 64.4 °F 48.2 °F 56% 29.95 in 10.0 mi SW 6.9 mph - N/A   Clear
8:15 AM 64.4 °F 50.0 °F 59% 29.94 in 10.0 mi WSW 5.8 mph - N/A   Clear
8:35 AM 66.2 °F 48.2 °F 52% 29.95 in 10.0 mi WSW 9.2 mph - N/A   Clear
8:55 AM 66.2 °F 50.0 °F 56% 29.97 in 10.0 mi WSW 10.4 mph - N/A   Scattered Clouds
9:15 AM 64.4 °F 50.0 °F 59% 29.99 in 10.0 mi WSW 8.1 mph - N/A   Mostly Cloudy
9:35 AM 68.0 °F 50.0 °F 52% 29.99 in 10.0 mi SW 8.1 mph - N/A   Scattered Clouds
9:55 AM 68.0 °F 50.0 °F 52% 29.99 in 10.0 mi West 6.9 mph - N/A   Mostly Cloudy
10:15 AM 68.0 °F 50.0 °F 52% 29.99 in 10.0 mi NW 4.6 mph - N/A   Mostly Cloudy
10:35 AM 68.0 °F 48.2 °F 49% 29.99 in 10.0 mi Calm Calm - N/A   Clear
10:55 AM 71.6 °F 50.0 °F 46% 29.99 in 10.0 mi WNW 9.2 mph - N/A   Clear
11:15 AM 73.4 °F 44.6 °F 36% 30.00 in 10.0 mi NNW 10.4 mph 17.3 mph N/A   Clear
11:35 AM 73.4 °F 44.6 °F 36% 30.01 in 10.0 mi NNW 12.7 mph 18.4 mph N/A   Clear
11:55 AM 73.4 °F 44.6 °F 36% 30.01 in 10.0 mi NNW 11.5 mph - N/A   Clear
12:15 PM 73.4 °F 44.6 °F 36% 30.01 in 10.0 mi NW 9.2 mph - N/A   Scattered Clouds
12:35 PM 75.2 °F 42.8 °F 31% 30.01 in 10.0 mi WNW 11.5 mph 18.4 mph N/A   Scattered Clouds
12:55 PM 75.2 °F 42.8 °F 31% 30.01 in 10.0 mi North 15.0 mph 20.7 mph N/A   Clear
1:15 PM 77.0 °F 44.6 °F 32% 30.01 in 10.0 mi NNW 11.5 mph 19.6 mph N/A   Clear
1:35 PM 75.2 °F 42.8 °F 31% 30.01 in 10.0 mi WNW 11.5 mph 20.7 mph N/A   Clear
1:55 PM 77.0 °F 42.8 °F 29% 30.01 in 10.0 mi NNW 12.7 mph 18.4 mph N/A   Clear
2:15 PM 77.0 °F 44.6 °F 32% 30.01 in 10.0 mi NNW 11.5 mph 18.4 mph N/A   Clear
2:35 PM 77.0 °F 42.8 °F 29% 30.00 in 10.0 mi WNW 8.1 mph 20.7 mph N/A   Clear
2:55 PM 77.0 °F 42.8 °F 29% 30.01 in 10.0 mi NW 8.1 mph 21.9 mph N/A   Clear
3:15 PM 77.0 °F 42.8 °F 29% 30.01 in 10.0 mi NW 13.8 mph 18.4 mph N/A   Clear
3:35 PM 77.0 °F 42.8 °F 29% 30.01 in 10.0 mi NNW 13.8 mph 18.4 mph N/A   Clear
3:55 PM 77.0 °F 42.8 °F 29% 30.00 in 10.0 mi NW 9.2 mph - N/A   Clear
4:15 PM 77.0 °F 41.0 °F 28% 29.99 in 10.0 mi NW 6.9 mph 21.9 mph N/A   Clear
4:35 PM 77.0 °F 41.0 °F 28% 29.99 in 10.0 mi NW 9.2 mph 19.6 mph N/A   Clear
4:55 PM 77.0 °F 42.8 °F 29% 29.99 in 10.0 mi WNW 10.4 mph - N/A   Clear
5:15 PM 75.2 °F 42.8 °F 31% 29.99 in 10.0 mi North 13.8 mph 17.3 mph N/A   Clear
5:35 PM 75.2 °F 41.0 °F 29% 29.99 in 10.0 mi NNW 9.2 mph 17.3 mph N/A   Clear
5:55 PM 75.2 °F 42.8 °F 31% 29.99 in 10.0 mi NW 11.5 mph 16.1 mph N/A   Clear
6:15 PM 73.4 °F 42.8 °F 33% 29.99 in 10.0 mi North 8.1 mph - N/A   Clear
6:35 PM 73.4 °F 42.8 °F 33% 29.99 in 10.0 mi North 11.5 mph - N/A   Clear
6:55 PM 73.4 °F 44.6 °F 36% 29.99 in 10.0 mi North 9.2 mph - N/A   Clear
7:15 PM 71.6 °F 42.8 °F 35% 30.00 in 10.0 mi North 8.1 mph - N/A   Clear
7:35 PM 71.6 °F 42.8 °F 35% 30.01 in 10.0 mi North 4.6 mph - N/A   Clear
7:55 PM 69.8 °F 42.8 °F 38% 30.01 in 10.0 mi North 4.6 mph - N/A   Clear
8:15 PM 68.0 °F 42.8 °F 40% 30.01 in 10.0 mi North 3.5 mph - N/A   Clear
8:35 PM 68.0 °F 44.6 °F 43% 30.02 in 10.0 mi Calm Calm - N/A   Clear
8:55 PM 64.4 °F 46.4 °F 52% 30.02 in 10.0 mi Calm Calm - N/A   Clear
9:15 PM 60.8 °F 46.4 °F 59% 30.03 in 10.0 mi East 4.6 mph - N/A   Clear
9:35 PM 60.8 °F 46.4 °F 59% 30.03 in 10.0 mi East 4.6 mph - N/A   Clear
9:55 PM 60.8 °F 44.6 °F 55% 30.03 in 10.0 mi ESE 5.8 mph - N/A   Clear
10:15 PM 59.0 °F 44.6 °F 59% 30.03 in 10.0 mi SSE 4.6 mph - N/A   Clear
10:35 PM 55.4 °F 46.4 °F 72% 30.04 in 10.0 mi South 6.9 mph - N/A   Clear
10:55 PM 59.0 °F 44.6 °F 59% 30.03 in 10.0 mi SSE 5.8 mph - N/A   Clear
11:15 PM 55.4 °F 46.4 °F 72% 30.04 in 10.0 mi SSE 6.9 mph - N/A   Clear
11:35 PM 55.4 °F 46.4 °F 72% 30.04 in 10.0 mi SSE 8.1 mph - N/A   Clear
11:55 PM 55.4 °F 44.6 °F 67% 30.04 in 10.0 mi SSE 6.9 mph - N/A   Clear